Simultaneous Nadir Overpasses (SNOs) Predictions

Prediction of SNOs between METOP-B and TERRA Satellite Orbit:

Table of predicted SNOs for the next 14.0 days since TLE Epoch: 4/6/2018
Index Date (METOP-B) Time (METOP-B) Lat,Lon (METOP-B) SZA (METOP-B ) Date (TERRA) Time (TERRA) Lat,Lon (TERRA) SZA (TERRA ) Distance(km) Time Diff (sec)
1 04/06/2018 18:50:29 81.34, -54.64 77.51 04/06/2018 18:50:41 81.33, -54.75 77.50 2.07 12
2 04/06/2018 19:41:08 -81.35, 113.28 102.44 04/06/2018 19:40:07 -81.35, 113.18 102.48 1.67 61
3 04/09/2018 14:24:49 81.34, 11.86 76.50 04/09/2018 14:24:58 81.34, 11.89 76.51 0.73 9
4 04/09/2018 15:15:29 -81.34, 179.43 103.49 04/09/2018 15:14:25 -81.34, 179.46 103.52 0.69 64
5 04/12/2018 09:59:10 81.34, 78.34 75.50 04/12/2018 09:59:17 81.34, 78.16 75.48 3.10 7
6 04/12/2018 10:49:50 -81.34,-114.04 104.49 04/12/2018 10:48:43 -81.35,-113.87 104.49 3.01 67
7 04/15/2018 05:33:31 81.34, 144.81 74.52 04/15/2018 05:33:35 81.35, 144.81 74.52 0.60 4
8 04/15/2018 06:24:11 -81.35, -47.52 105.46 04/15/2018 06:23:02 -81.35, -47.59 105.50 1.07 69
9 04/18/2018 00:17:37 -81.10, 33.73 107.71 04/18/2018 00:18:51 -80.75, 34.76 107.83 42.03 74
10 04/18/2018 01:07:51 81.34,-148.72 73.55 04/18/2018 01:07:53 81.34,-148.92 73.53 3.31 2




NCC Satellite Simultaneous Nadir Overpasses (SNOs) Prediction Service
